JLY7842 SBRB-SBPV

Flight info

Callsign JLY7842
Flight time 0h 42m
Altitude 29000
Route BIGOD UZ74 OSATU
Aircraft A320/M-SDE3FGHIRWY/LB1

Departure

Time 2026-05-06 23:56
Airport Rio Branco-Plácido de Castro International Airport (SBRB)

Arrival

Time 2026-05-07 00:38
Airport Governador Jorge Teixeira de Oliveira International Airport (SBPV)
Time Latitude Longitude Altitude Speed Heading
2026-05-06 23:51 -9.86793 -67.89719 639 ft 6 kts 237°
2026-05-06 23:51 -9.86813 -67.89750 636 ft 5 kts 235°
2026-05-06 23:51 -9.86828 -67.89773 636 ft 4 kts 235°
2026-05-06 23:51 -9.86842 -67.89780 639 ft 3 kts 184°
2026-05-06 23:52 -9.86889 -67.89784 636 ft 10 kts 185°
2026-05-06 23:52 -9.86977 -67.89804 636 ft 14 kts 194°
2026-05-06 23:52 -9.87065 -67.89826 635 ft 12 kts 194°
2026-05-06 23:52 -9.87149 -67.89848 632 ft 13 kts 194°
2026-05-06 23:53 -9.87221 -67.89890 634 ft 12 kts 228°
2026-05-06 23:53 -9.87266 -67.89958 631 ft 14 kts 237°
2026-05-06 23:53 -9.87333 -67.90062 631 ft 20 kts 237°
2026-05-06 23:53 -9.87401 -67.90157 630 ft 13 kts 208°
2026-05-06 23:54 -9.87452 -67.90181 634 ft 6 kts 250°
2026-05-06 23:54 -9.87422 -67.90202 632 ft 8 kts 37°
2026-05-06 23:54 -9.87384 -67.90140 630 ft 9 kts 57°
2026-05-06 23:54 -9.87381 -67.90135 630 ft 0 kts 57°
2026-05-06 23:55 -9.87355 -67.90093 631 ft 31 kts 56°
2026-05-06 23:55 -9.87096 -67.89693 634 ft 102 kts 57°
2026-05-06 23:55 -9.86607 -67.88932 636 ft 154 kts 56°
2026-05-06 23:55 -9.85993 -67.88000 1139 ft 157 kts 56°
2026-05-06 23:56 -9.85389 -67.87056 1584 ft 167 kts 56°
2026-05-06 23:56 -9.84718 -67.86004 1829 ft 190 kts 56°
2026-05-06 23:56 -9.83953 -67.84808 2065 ft 215 kts 56°
2026-05-06 23:56 -9.83237 -67.83353 2244 ft 248 kts 71°
2026-05-06 23:57 -9.82766 -67.81620 2907 ft 258 kts 75°
2026-05-06 23:57 -9.82363 -67.79861 3731 ft 262 kts 76°
2026-05-06 23:57 -9.81960 -67.78039 4556 ft 266 kts 76°
2026-05-06 23:57 -9.81546 -67.76203 5394 ft 269 kts 76°
2026-05-06 23:58 -9.81110 -67.74343 6216 ft 272 kts 76°
2026-05-06 23:58 -9.80655 -67.72470 6975 ft 276 kts 76°
2026-05-06 23:58 -9.80187 -67.70571 7720 ft 279 kts 76°
2026-05-06 23:58 -9.79708 -67.68648 8470 ft 283 kts 76°
2026-05-06 23:59 -9.79219 -67.66698 9223 ft 287 kts 76°
2026-05-06 23:59 -9.78723 -67.64732 9954 ft 290 kts 76°
2026-05-06 23:59 -9.78214 -67.62707 10338 ft 307 kts 76°
2026-05-06 23:59 -9.77668 -67.60531 10487 ft 330 kts 76°
2026-05-07 00:00 -9.77096 -67.58242 10756 ft 346 kts 76°
2026-05-07 00:00 -9.76497 -67.55857 11315 ft 351 kts 76°
2026-05-07 00:00 -9.75889 -67.53444 11935 ft 355 kts 76°
2026-05-07 00:00 -9.75275 -67.51011 12559 ft 358 kts 76°
2026-05-07 00:01 -9.74655 -67.48551 13183 ft 361 kts 76°
2026-05-07 00:01 -9.74031 -67.46073 13788 ft 365 kts 76°
2026-05-07 00:01 -9.73399 -67.43574 14321 ft 368 kts 76°
2026-05-07 00:01 -9.72759 -67.41051 14855 ft 371 kts 76°
2026-05-07 00:02 -9.72117 -67.38513 15381 ft 373 kts 76°
2026-05-07 00:02 -9.71469 -67.35955 15907 ft 376 kts 76°
2026-05-07 00:02 -9.70814 -67.33378 16432 ft 379 kts 76°
2026-05-07 00:02 -9.70165 -67.30819 16938 ft 382 kts 76°
2026-05-07 00:03 -9.69503 -67.28206 17462 ft 384 kts 76°
2026-05-07 00:03 -9.68840 -67.25573 17974 ft 387 kts 76°
2026-05-07 00:03 -9.68172 -67.22918 18440 ft 390 kts 76°
2026-05-07 00:03 -9.67490 -67.20243 18884 ft 393 kts 75°
2026-05-07 00:04 -9.66760 -67.17568 19342 ft 395 kts 74°
2026-05-07 00:04 -9.65990 -67.14886 19796 ft 398 kts 73°
2026-05-07 00:04 -9.65198 -67.12193 20256 ft 400 kts 73°
2026-05-07 00:04 -9.64400 -67.09489 20710 ft 402 kts 73°
2026-05-07 00:05 -9.63614 -67.06798 21151 ft 404 kts 73°
2026-05-07 00:05 -9.62824 -67.04059 21591 ft 407 kts 73°
2026-05-07 00:05 -9.62035 -67.01297 22007 ft 409 kts 74°
2026-05-07 00:05 -9.61245 -66.98518 22423 ft 411 kts 74°
2026-05-07 00:06 -9.60449 -66.95726 22831 ft 414 kts 73°
2026-05-07 00:06 -9.59647 -66.92916 23224 ft 416 kts 73°
2026-05-07 00:06 -9.58840 -66.90091 23597 ft 418 kts 73°
2026-05-07 00:06 -9.58026 -66.87251 23905 ft 421 kts 73°
2026-05-07 00:07 -9.57207 -66.84394 24205 ft 423 kts 73°
2026-05-07 00:07 -9.56395 -66.81565 24502 ft 426 kts 73°
2026-05-07 00:07 -9.55567 -66.78679 24790 ft 428 kts 73°
2026-05-07 00:07 -9.54732 -66.75775 25076 ft 430 kts 73°
2026-05-07 00:08 -9.53892 -66.72858 25369 ft 432 kts 73°
2026-05-07 00:08 -9.53049 -66.69925 25639 ft 435 kts 73°
2026-05-07 00:08 -9.52204 -66.66980 25912 ft 437 kts 73°
2026-05-07 00:08 -9.51353 -66.64013 26183 ft 439 kts 73°
2026-05-07 00:09 -9.50498 -66.61032 26443 ft 442 kts 73°
2026-05-07 00:09 -9.49639 -66.58038 26713 ft 444 kts 73°
2026-05-07 00:09 -9.48789 -66.55073 26968 ft 446 kts 73°
2026-05-07 00:09 -9.47919 -66.52046 27228 ft 448 kts 73°
2026-05-07 00:10 -9.47045 -66.49012 27484 ft 450 kts 73°
2026-05-07 00:10 -9.46163 -66.45960 27734 ft 452 kts 73°
2026-05-07 00:10 -9.45281 -66.42901 27983 ft 454 kts 73°
2026-05-07 00:10 -9.44393 -66.39821 28228 ft 456 kts 73°
2026-05-07 00:11 -9.43504 -66.36735 28460 ft 458 kts 73°
2026-05-07 00:11 -9.42607 -66.33630 28683 ft 460 kts 73°
2026-05-07 00:11 -9.41723 -66.30559 28885 ft 462 kts 73°
2026-05-07 00:11 -9.40828 -66.27443 28960 ft 458 kts 73°
2026-05-07 00:12 -9.39055 -66.21304 28966 ft 453 kts 73°
2026-05-07 00:12 -9.37291 -66.15191 28968 ft 452 kts 73°
2026-05-07 00:13 -9.35525 -66.09082 28968 ft 452 kts 73°
2026-05-07 00:13 -9.33775 -66.03019 28965 ft 451 kts 73°
2026-05-07 00:14 -9.32011 -65.96923 28965 ft 451 kts 73°
2026-05-07 00:14 -9.30241 -65.90831 28965 ft 451 kts 73°
2026-05-07 00:15 -9.28474 -65.84745 28961 ft 450 kts 73°
2026-05-07 00:15 -9.26714 -65.78662 28964 ft 450 kts 73°
2026-05-07 00:16 -9.24964 -65.72623 28958 ft 450 kts 73°
2026-05-07 00:16 -9.23197 -65.66550 28958 ft 450 kts 73°
2026-05-07 00:17 -9.21429 -65.60483 28958 ft 449 kts 73°
2026-05-07 00:17 -9.19663 -65.54417 28953 ft 449 kts 73°
2026-05-07 00:18 -9.17915 -65.48397 28954 ft 449 kts 73°
2026-05-07 00:18 -9.16154 -65.42335 28948 ft 449 kts 73°
2026-05-07 00:19 -9.14396 -65.36280 28951 ft 449 kts 73°
2026-05-07 00:19 -9.12626 -65.30225 28954 ft 449 kts 73°
2026-05-07 00:20 -9.10857 -65.24167 28952 ft 449 kts 73°
2026-05-07 00:20 -9.09079 -65.18064 28975 ft 459 kts 73°
2026-05-07 00:21 -9.08173 -65.14966 28834 ft 458 kts 73°
2026-05-07 00:21 -9.07278 -65.11908 27477 ft 453 kts 73°
2026-05-07 00:21 -9.06382 -65.08845 26059 ft 453 kts 73°
2026-05-07 00:21 -9.05492 -65.05810 24926 ft 446 kts 73°
2026-05-07 00:22 -9.04627 -65.02858 24302 ft 429 kts 73°
2026-05-07 00:22 -9.03784 -64.99979 23716 ft 425 kts 73°
2026-05-07 00:22 -9.02949 -64.97122 23071 ft 422 kts 73°
2026-05-07 00:22 -9.02122 -64.94298 22505 ft 417 kts 74°
2026-05-07 00:23 -9.01306 -64.91507 22002 ft 411 kts 74°
2026-05-07 00:23 -9.00509 -64.88783 21497 ft 407 kts 74°
2026-05-07 00:23 -8.99710 -64.86056 21013 ft 402 kts 74°
2026-05-07 00:23 -8.98920 -64.83356 20527 ft 398 kts 74°
2026-05-07 00:24 -8.98137 -64.80679 20055 ft 395 kts 74°
2026-05-07 00:24 -8.97359 -64.78027 19583 ft 392 kts 74°
2026-05-07 00:24 -8.96585 -64.75394 19101 ft 390 kts 74°
2026-05-07 00:24 -8.95815 -64.72777 18626 ft 387 kts 74°
2026-05-07 00:25 -8.95049 -64.70173 18111 ft 386 kts 74°
2026-05-07 00:25 -8.94286 -64.67582 17584 ft 383 kts 74°
2026-05-07 00:25 -8.93530 -64.65011 17086 ft 380 kts 74°
2026-05-07 00:25 -8.92791 -64.62500 16597 ft 377 kts 74°
2026-05-07 00:26 -8.92048 -64.59967 16090 ft 374 kts 74°
2026-05-07 00:26 -8.91311 -64.57448 15591 ft 372 kts 74°
2026-05-07 00:26 -8.90633 -64.54932 15080 ft 370 kts 79°
2026-05-07 00:26 -8.90382 -64.52353 14577 ft 368 kts 90°
2026-05-07 00:27 -8.90484 -64.49771 14066 ft 367 kts 92°
2026-05-07 00:27 -8.90599 -64.47202 13530 ft 366 kts 92°
2026-05-07 00:27 -8.90711 -64.44638 12998 ft 363 kts 92°
2026-05-07 00:27 -8.90821 -64.42103 12483 ft 360 kts 92°
2026-05-07 00:28 -8.90929 -64.39617 11965 ft 357 kts 92°
2026-05-07 00:28 -8.91040 -64.37117 11448 ft 355 kts 92°
2026-05-07 00:28 -8.91151 -64.34636 10912 ft 352 kts 92°
2026-05-07 00:28 -8.91261 -64.32172 10538 ft 346 kts 92°
2026-05-07 00:29 -8.91365 -64.29798 10418 ft 331 kts 92°
2026-05-07 00:29 -8.91462 -64.27523 10301 ft 318 kts 92°
2026-05-07 00:30 -8.91739 -64.21199 9838 ft 289 kts 93°
2026-05-07 00:30 -8.91831 -64.19151 9374 ft 292 kts 92°
2026-05-07 00:30 -8.91921 -64.17114 8976 ft 290 kts 92°
2026-05-07 00:30 -8.92008 -64.15067 8591 ft 289 kts 92°
2026-05-07 00:31 -8.92093 -64.13055 8118 ft 284 kts 92°
2026-05-07 00:31 -8.92179 -64.11070 7451 ft 282 kts 92°
2026-05-07 00:31 -8.92264 -64.09105 6909 ft 277 kts 92°
2026-05-07 00:31 -8.92346 -64.07169 6432 ft 275 kts 92°
2026-05-07 00:32 -8.92428 -64.05254 5946 ft 278 kts 92°
2026-05-07 00:32 -8.92511 -64.03309 5531 ft 276 kts 92°
2026-05-07 00:32 -8.92592 -64.01371 5139 ft 273 kts 91°
2026-05-07 00:32 -8.92649 -63.99469 4566 ft 268 kts 86°
2026-05-07 00:33 -8.92330 -63.97633 4075 ft 265 kts 71°
2026-05-07 00:33 -8.91621 -63.95908 3594 ft 267 kts 65°
2026-05-07 00:33 -8.90874 -63.94186 3109 ft 268 kts 65°
2026-05-07 00:33 -8.90131 -63.92459 2680 ft 267 kts 65°
2026-05-07 00:34 -8.89294 -63.90857 2566 ft 245 kts 50°
2026-05-07 00:34 -8.88108 -63.89832 2485 ft 213 kts 27°
2026-05-07 00:34 -8.86737 -63.89375 2419 ft 197 kts
2026-05-07 00:34 -8.85457 -63.89385 2310 ft 176 kts 357°
2026-05-07 00:35 -8.84319 -63.89456 2251 ft 154 kts 358°
2026-05-07 00:35 -8.83283 -63.89517 2165 ft 146 kts 358°
2026-05-07 00:35 -8.82279 -63.89577 2098 ft 143 kts 358°
2026-05-07 00:35 -8.81292 -63.89634 2034 ft 142 kts 358°
2026-05-07 00:36 -8.80308 -63.89691 1969 ft 142 kts 358°
2026-05-07 00:36 -8.79320 -63.89745 1787 ft 141 kts 358°
2026-05-07 00:36 -8.78343 -63.89799 1590 ft 141 kts 358°
2026-05-07 00:36 -8.77381 -63.89853 1394 ft 140 kts 357°
2026-05-07 00:37 -8.76407 -63.89908 1214 ft 140 kts 357°
2026-05-07 00:37 -8.75430 -63.89963 1030 ft 141 kts 357°
2026-05-07 00:37 -8.74449 -63.90021 828 ft 142 kts 357°
2026-05-07 00:37 -8.73459 -63.90081 623 ft 143 kts 356°
2026-05-07 00:38 -8.72469 -63.90141 417 ft 142 kts 356°
2026-05-07 00:38 -8.71501 -63.90196 303 ft 131 kts 358°
2026-05-07 00:38 -8.70788 -63.90238 301 ft 62 kts 356°
2026-05-07 00:38 -8.70428 -63.90258 300 ft 48 kts 357°
2026-05-07 00:39 -8.70312 -63.90215 300 ft 14 kts 79°
2026-05-07 00:39 -8.70327 -63.90123 301 ft 13 kts 153°
2026-05-07 00:39 -8.70408 -63.90117 300 ft 11 kts 176°
2026-05-07 00:39 -8.70477 -63.90113 300 ft 9 kts 176°
2026-05-07 00:40 -8.70537 -63.90109 300 ft 8 kts 176°
2026-05-07 00:40 -8.70587 -63.90106 301 ft 7 kts 176°
2026-05-07 00:40 -8.70630 -63.90103 301 ft 5 kts 176°
2026-05-07 00:40 -8.70667 -63.90101 300 ft 6 kts 176°
2026-05-07 00:41 -8.70721 -63.90097 300 ft 9 kts 176°
2026-05-07 00:41 -8.70787 -63.90093 300 ft 10 kts 176°
2026-05-07 00:41 -8.70864 -63.90089 300 ft 12 kts 176°
2026-05-07 00:41 -8.70950 -63.90084 301 ft 13 kts 177°
2026-05-07 00:42 -8.71048 -63.90079 300 ft 15 kts 177°
2026-05-07 00:42 -8.71156 -63.90075 303 ft 16 kts 178°
2026-05-07 00:42 -8.71273 -63.90065 302 ft 18 kts 174°
2026-05-07 00:42 -8.71367 -63.90057 303 ft 13 kts 177°
2026-05-07 00:43 -8.71428 -63.90033 301 ft 4 kts 88°
2026-05-07 00:43 -8.71425 -63.90017 299 ft 1 kts 85°
2026-05-07 00:43 -8.71425 -63.90009 299 ft 1 kts 85°
2026-05-07 00:43 -8.71423 -63.89983 299 ft 6 kts 87°
2026-05-07 00:44 -8.71421 -63.89936 300 ft 8 kts 87°
2026-05-07 00:44 -8.71419 -63.89876 300 ft 9 kts 87°
2026-05-07 00:44 -8.71417 -63.89834 300 ft 0 kts 88°
2026-05-07 00:44 -8.71420 -63.89930 300 ft 0 kts 86°